CAPE
646 1191 2073 2173 2131 2274 1981 1643 1715 1731 1702 1566 1174 1092 911 576 157 184 210 239 401 681 435 50 48 29 169 294 275 57 69 92 191 294 429 154 53 268 407 303 324 0 3
662 1209 1889 2186 2304 2338 2254 2077 1920 1722 1626 1611 1231 900 599 195 91 492 269 828 874 782 364 17 78 20 36 45 24 6 11 8 16 61 80 212 322 471 417 255 480 16 3
874 1235 1414 1973 2243 2343 2357 2229 2009 1856 1733 1629 1519 1088 595 170 67 638 711 913 813 720 276 13 44 18 9 6 4 2 0 0 0 0 0 20 93 73 277 297 203 302 324
1007 1147 1156 1831 2140 2311 2274 2161 1918 1912 1642 1467 1496 1669 912 328 133 529 1013 910 804 308 41 5 7 8 5 1 0 0 0 0 0 0 0 0 11 19 14 20 110 120 69
1004 1084 1091 1704 1944 2167 2231 2169 1907 1725 1592 1285 1568 1492 1325 870 714 868 926 909 910 430 10 1 0 0 0 0 0 0 0 0 0 0 0 0 0 7 5 6 5 5 7
960 989 1301 1603 1727 1775 2066 1879 1799 1636 1456 1381 1576 1528 1299 1562 1188 1113 985 923 730 284 0 0 0 0 0 0 0 0 0 0 0 0 0 0 0 1 0 0 0 2 3
871 986 1337 1699 1730 1638 1640 1915 1900 1866 1605 1457 1371 1547 1261 1240 1117 983 1038 888 676 152 0 0 0 0 0 0 0 0 0 0 0 0 0 0 0 0 0 0 0 0 0
845 1094 1308 1576 1638 1615 1479 1468 1881 1882 1738 1579 1443 1189 1176 1170 1125 1114 1158 976 517 51 0 0 0 0 0 0 0 0 0 0 0 0 0 0 0 0 0 0 0 0 0
986 1230 1265 1315 1333 1355 1303 1174 1296 1774 1653 1462 1339 1218 981 775 890 655 581 965 556 90 0 0 0 0 0 0 0 0 0 0 0 0 0 0 0 0 0 0 0 0 0
1053 1213 1153 1219 1211 1160 1055 1067 988 1224 1419 1285 1155 887 658 509 528 441 221 460 667 383 160 38 0 0 0 0 0 0 0 0 0 0 0 0 0 0 0 0 0 0 0
536 876 1185 1071 1060 938 941 933 1019 982 1221 1029 965 754 503 341 261 72 0 26 341 407 376 96 38 52 22 0 0 0 0 0 0 0 0 0 0 0 0 0 0 0 0
81 530 737 797 744 643 775 852 862 978 912 802 668 598 352 218 176 0 0 21 359 368 354 331 225 138 4 0 0 0 0 0 0 0 0 0 0 0 0 0 0 0 0
1 33 258 537 544 453 638 733 690 766 791 651 563 433 271 117 140 4 0 0 54 40 23 53 26 0 0 0 0 0 0 0 0 0 0 0 0 0 0 0 0 0 0
0 0 23 67 201 266 277 477 463 516 588 622 516 425 310 90 102 26 0 0 3 1 7 14 0 0 0 0 0 0 0 0 0 0 0 0 7 1 0 30 85 99 84
0 0 9 45 80 180 206 200 303 430 363 423 483 421 331 129 281 88 19 1 9 4 6 5 0 0 0 0 0 0 0 0 0 0 0 0 0 101 100 22 95 128 94
0 0 0 37 116 96 103 121 216 213 282 329 416 387 327 232 269 119 89 4 0 3 3 1 0 0 0 0 0 0 0 0 0 0 0 0 0 1 111 74 67 96 69
0 0 0 12 89 112 91 84 87 127 162 216 299 274 279 258 90 200 159 128 0 21 11 0 0 0 0 0 0 0 0 0 0 0 0 0 0 0 2 59 160 123 130
0 0 0 5 48 87 98 117 60 54 99 145 188 124 189 195 163 168 161 37 62 42 24 16 0 0 0 0 0 0 0 0 0 0 0 6 0 0 0 3 142 211 156
0 0 0 0 33 104 109 66 59 56 61 121 144 165 142 121 88 133 123 61 104 78 50 58 1 0 0 0 0 0 0 0 0 0 0 14 12 0 0 5 0 16 0
0 0 0 0 4 0 0 4 16 36 34 26 42 87 119 98 99 77 41 69 113 193 93 41 1 0 0 0 0 0 0 0 0 0 7 16 12 0 3 5 5 0 0
0 0 31 46 43 43 14 0 0 0 3 1 3 15 58 110 74 24 12 23 20 27 43 49 0 10 0 0 0 2 0 1 0 0 4 29 15 10 2 0 0 0 1
0 42 108 142 157 96 52 3 0 0 1 19 15 17 25 43 50 12 8 5 3 19 98 22 6 0 1 24 34 34 24 13 7 10 4 18 2 4 17 11 0 15 12
66 103 171 225 205 206 175 125 68 47 10 16 31 38 34 23 52 22 34 25 7 3 32 68 59 42 55 82 85 67 35 17 16 20 45 42 50 20 53 65 30 37 33
56 117 189 197 207 205 181 170 85 73 61 40 40 37 35 18 40 38 60 88 28 47 131 142 99 161 155 137 120 114 89 41 22 20 1 37 81 66 60 58 45 39 35
55 89 125 103 130 163 108 79 123 85 77 84 68 40 42 28 49 84 99 86 74 71 150 191 179 204 197 159 105 87 76 86 85 63 27 26 39 47 62 63 55 63 8
39 61 65 60 13 11 45 29 59 43 52 53 38 49 21 21 54 54 82 102 124 160 160 132 137 142 131 87 78 67 46 50 46 63 48 44 41 31 57 51 50 10 17
CIN
-284 -185 -61 -32 -9 -0 -0 -1 -0 -0 -0 -0 -3 -13 -24 -66 -210 -172 -145 -127 -95 -59 -111 -303 -309 -22 -210 -158 -162 -176 -257 -218 -166 -125 -80 -180 -146 -127 -82 -98 -86 -0 -0
-287 -176 -65 -22 -2 -0 -0 -0 -0 -0 -0 -0 -0 -10 -61 -190 -276 -60 -102 -6 -12 -49 -134 -394 -259 -0 -149 -217 -45 -0 -0 -0 -26 -255 -236 -158 -107 -63 -62 -95 -47 -85 -0
-256 -152 -92 -19 -1 -0 -0 -0 -0 -0 -0 -0 -0 -0 -33 -198 -306 -38 -18 -0 -10 -51 -158 -219 -314 -0 -0 -0 -0 -0 -0 -0 -0 -0 -0 -1 -196 -90 -98 -86 -102 -63 -57
-222 -162 -129 -25 -0 -0 -0 -0 -0 -0 -0 -0 -0 -0 -4 -74 -186 -46 -4 -5 -10 -120 -310 -0 -0 -0 -0 -0 -0 -0 -0 -0 -0 -0 -0 -0 -0 -0 -0 -2 -122 -49 -85
-177 -157 -137 -34 -1 -0 -0 -0 -0 -0 -0 -0 -1 -0 -0 -3 -16 -13 -8 -9 -3 -70 -275 -0 -0 -0 -0 -0 -0 -0 -0 -0 -0 -0 -0 -0 -0 -0 -0 -0 -0 -0 -0
-130 -123 -73 -20 -1 -0 -0 -0 -0 -0 -0 -1 -1 -0 -0 -0 -0 -0 -9 -12 -24 -103 -0 -0 -0 -0 -0 -0 -0 -0 -0 -0 -0 -0 -0 -0 -0 -0 -0 -0 -0 -0 -0
-110 -83 -41 -0 -0 -0 -0 -0 -0 -0 -0 -0 -0 -0 -0 -0 -0 -0 -5 -11 -30 -164 -0 -0 -0 -0 -0 -0 -0 -0 -0 -0 -0 -0 -0 -0 -0 -0 -0 -0 -0 -0 -0
-80 -33 -3 -0 -0 -0 -0 -0 -0 -0 -0 -0 -0 -0 -0 -0 -0 -0 -0 -8 -39 -237 -0 -0 -0 -0 -0 -0 -0 -0 -0 -0 -0 -0 -0 -0 -0 -0 -0 -0 -0 -0 -0
-39 -13 -0 -0 -0 -2 -4 -6 -1 -0 -0 -0 -0 -0 -1 -3 -0 -0 -18 -1 -29 -156 -0 -0 -0 -0 -0 -0 -0 -0 -0 -0 -0 -0 -0 -0 -0 -0 -0 -0 -0 -0 -0
-27 -5 -1 -0 -0 -0 -2 -14 -12 -2 -0 -2 -2 -3 -2 -6 -3 -2 -41 -20 -12 -33 -98 -293 -0 -0 -1 -0 -0 -0 -0 -0 -0 -0 -0 -0 -0 -0 -0 -0 -0 -0 -0
-36 -14 -0 -0 -0 -0 -0 -5 -2 -2 -0 -1 -1 -3 -7 -12 -30 -89 -0 -138 -29 -23 -28 -154 -110 -130 -57 -0 -0 -0 -0 -0 -0 -0 -0 -0 -0 -0 -0 -0 -0 -0 -0
-42 -28 -21 -20 -30 -12 -0 -0 -2 -0 -1 -2 -2 -2 -15 -21 -30 -0 -0 -76 -15 -21 -21 -24 -54 -110 -21 -0 -0 -0 -0 -0 -0 -0 -0 -0 -0 -0 -0 -0 -0 -0 -0
-0 -39 -74 -59 -28 -50 -21 -0 -1 -0 -0 -1 -4 -4 -8 -33 -29 -3 -0 -0 -144 -70 -77 -49 -55 -0 -0 -0 -0 -0 -0 -0 -0 -0 -0 -0 -0 -0 -0 -0 -0 -0 -0
-0 -0 -47 -82 -78 -35 -63 -45 -59 -9 -0 -0 -4 -3 -2 -31 -20 -38 -0 -7 -122 -125 -140 -134 -0 -0 -0 -0 -0 -0 -0 -0 -0 -0 -0 -0 -4 -1 -0 -17 -71 -52 -31
-0 -0 -1 -74 -62 -44 -67 -78 -59 -55 -29 -1 -1 -2 -3 -8 -0 -3 -13 -27 -137 -90 -148 -201 -0 -0 -0 -0 -0 -0 -0 -0 -0 -0 -0 -0 -0 -65 -30 -13 -54 -44 -28
-0 -0 -0 -53 -38 -50 -56 -71 -82 -95 -78 -32 -11 -10 -10 -7 -0 -7 -10 -5 -0 -132 -90 -240 -0 -0 -0 -0 -0 -0 -0 -0 -0 -0 -0 -0 -0 -31 -52 -23 -14 -37 -1
-0 -0 -0 -84 -32 -45 -38 -23 -50 -95 -105 -100 -97 -45 -4 -0 -49 -12 -0 -0 -0 -100 -90 -0 -0 -0 -0 -0 -0 -0 -0 -0 -0 -0 -0 -0 -0 -0 -70 -39 -23 -23 -5
-0 -0 -0 -95 -53 -27 -28 -35 -18 -45 -49 -128 -94 -58 -75 -21 -25 -2 -0 -2 -30 -83 -82 -108 -0 -0 -0 -0 -0 -0 -0 -0 -0 -0 -0 -86 -0 -0 -0 -82 -42 -16 -15
-0 -0 -0 -0 -78 -32 -22 -22 -21 -17 -40 -41 -40 -31 -44 -51 -13 -0 -4 -0 -2 -9 -66 -90 -10 -0 -0 -0 -0 -0 -0 -0 -0 -0 -0 -90 -83 -0 -0 -110 -0 -104 -0
-0 -0 -0 -0 -36 -0 -0 -5 -73 -30 -14 -24 -17 -73 -54 -62 -67 -0 -6 -4 -4 -2 -34 -76 -21 -0 -0 -0 -0 -0 -0 -0 -0 -0 -112 -78 -89 -0 -68 -58 -92 -0 -0
-0 -0 -119 -97 -60 -50 -60 -0 -0 -0 -0 -0 -136 -110 -92 -68 -79 -130 -93 -14 -59 -36 -47 -93 -0 -103 -0 -0 -0 -122 -0 -38 -0 -0 -75 -60 -54 -35 -6 -0 -8 -0 -1
-0 -122 -104 -72 -68 -68 -109 -25 -32 -0 -0 -154 -151 -130 -85 -99 -77 -139 -89 -4 -0 -83 -23 -125 -30 -0 -15 -113 -103 -89 -74 -92 -109 -91 -41 -23 -16 -16 -18 -34 -0 -3 -5
-86 -101 -78 -55 -76 -55 -67 -70 -62 -59 -0 -27 -64 -120 -97 -85 -78 -70 -59 -95 -37 -3 -47 -19 -67 -140 -95 -84 -75 -49 -47 -71 -40 -47 -55 -59 -30 -9 -17 -12 -6 -1 -2
-82 -48 -69 -96 -73 -72 -71 -43 -48 -41 -36 -46 -78 -88 -70 -33 -47 -40 -14 -24 -69 -77 -19 -31 -54 -42 -47 -43 -47 -42 -34 -29 -59 -60 -17 -73 -43 -20 -5 -12 -10 -1 -1
-89 -73 -42 -65 -100 -86 -114 -69 -30 -35 -22 -11 -2 -0 -12 -22 -9 -9 -18 -15 -65 -46 -77 -57 -26 -43 -50 -26 -28 -34 -54 -63 -54 -38 -69 -61 -48 -24 -2 -0 -0 -0 -1
-134 -84 -42 -9 -21 -83 -81 -65 -17 -11 -2 -10 -0 -0 -0 -16 -4 -8 -51 -62 -62 -35 -40 -59 -30 -40 -41 -80 -40 -39 -69 -52 -50 -51 -46 -33 -37 -17 -0 -0 -0 -0 -1
Wind_Speed
39 38 31 28 28 28 28 29 29 28 25 25 25 26 25 24 24 24 23 22 22 19 22 nan nan nan 17 18 18 nan nan nan 22 23 20 19 nan 16 15 16 18 nan nan
30 37 37 33 31 30 30 29 30 30 27 26 26 25 26 27 nan 25 24 22 20 23 23 nan nan nan nan nan nan nan nan nan nan nan nan 16 15 19 19 19 19 nan nan
27 22 33 35 37 33 33 31 31 30 28 26 24 25 24 27 nan 25 23 21 23 25 24 nan nan nan nan nan nan nan nan nan nan nan nan nan nan nan 19 19 22 22 22
27 21 19 29 37 39 36 35 32 31 28 25 25 24 25 26 27 26 24 25 25 25 nan nan nan nan nan nan nan nan nan nan nan nan nan nan nan nan nan nan 20 20 nan
27 25 21 22 29 41 41 39 35 32 30 27 26 26 26 25 27 26 27 27 27 26 nan nan nan nan nan nan nan nan nan nan nan nan nan nan nan nan nan nan nan nan nan
27 28 27 25 24 30 42 42 38 34 31 29 29 28 26 25 27 30 29 30 30 28 nan nan nan nan nan nan nan nan nan nan nan nan nan nan nan nan nan nan nan nan nan
31 30 32 28 26 26 29 42 41 38 34 31 30 29 28 26 27 32 31 32 32 29 nan nan nan nan nan nan nan nan nan nan nan nan nan nan nan nan nan nan nan nan nan
35 34 32 31 29 29 26 29 39 38 37 34 34 30 29 30 32 34 33 32 33 nan nan nan nan nan nan nan nan nan nan nan nan nan nan nan nan nan nan nan nan nan nan
40 38 36 33 29 30 28 25 28 38 37 37 37 34 32 32 33 33 32 34 34 nan nan nan nan nan nan nan nan nan nan nan nan nan nan nan nan nan nan nan nan nan nan
40 41 38 37 30 30 30 30 26 29 38 39 39 39 38 36 35 34 31 34 35 34 30 nan nan nan nan nan nan nan nan nan nan nan nan nan nan nan nan nan nan nan nan
39 35 38 37 38 36 35 33 31 27 30 39 41 42 42 41 38 nan nan nan 35 35 32 nan nan nan nan nan nan nan nan nan nan nan nan nan nan nan nan nan nan nan nan
nan 35 33 34 38 39 36 36 37 33 30 29 39 45 43 44 40 nan nan nan 34 35 32 31 27 25 nan nan nan nan nan nan nan nan nan nan nan nan nan nan nan nan nan
nan nan 37 34 39 40 38 40 42 42 36 29 31 40 46 45 43 nan nan nan nan nan nan nan nan nan nan nan nan nan nan nan nan nan nan nan nan nan nan nan nan nan nan
nan nan nan nan 33 37 37 35 36 41 40 32 28 29 40 nan 45 nan nan nan nan nan nan nan nan nan nan nan nan nan nan nan nan nan nan nan nan nan nan nan nan nan nan
nan nan nan nan nan 42 46 45 33 35 37 32 28 28 29 37 47 nan nan nan nan nan nan nan nan nan nan nan nan nan nan nan nan nan nan nan nan 21 21 nan nan 26 nan
nan nan nan nan 50 nan 53 43 41 37 37 40 38 36 35 33 38 49 nan nan nan nan nan nan nan nan nan nan nan nan nan nan nan nan nan nan nan nan 24 nan nan nan nan
nan nan nan nan nan 50 nan nan nan 44 46 44 45 42 40 35 nan 40 51 51 nan nan nan nan nan nan nan nan nan nan nan nan nan nan nan nan nan nan nan nan 34 32 31
nan nan nan nan nan nan nan 50 nan nan nan 44 45 44 46 42 36 38 50 nan nan nan nan nan nan nan nan nan nan nan nan nan nan nan nan nan nan nan nan nan 38 38 42
nan nan nan nan nan 49 50 nan nan nan nan 48 50 47 42 41 nan 42 49 nan 61 nan nan nan nan nan nan nan nan nan nan nan nan nan nan nan nan nan nan nan nan nan nan
nan nan nan nan nan nan nan nan nan nan nan nan nan nan 43 nan nan nan nan nan 39 41 nan nan nan nan nan nan nan nan nan nan nan nan nan nan nan nan nan nan nan nan nan
nan nan nan nan nan nan nan nan nan nan nan nan nan nan nan 42 nan nan nan nan nan nan nan nan nan nan nan nan nan nan nan nan nan nan nan nan nan nan nan nan nan nan nan
nan nan 61 59 57 nan nan nan nan nan nan nan nan nan nan nan nan nan nan nan nan nan nan nan nan nan nan nan nan nan nan nan nan nan nan nan nan nan nan nan nan nan nan
nan 62 62 60 58 55 54 55 nan nan nan nan nan nan nan nan nan nan nan nan nan nan nan nan nan nan nan nan nan nan nan nan nan nan nan nan nan nan nan nan nan nan nan
nan 61 65 64 58 53 51 47 nan nan nan nan nan nan nan nan nan nan nan nan nan nan 61 53 nan 68 66 59 63 55 nan nan nan nan nan nan nan nan nan nan nan nan nan
nan nan 57 60 54 46 42 nan 46 nan nan nan nan nan nan nan nan nan nan nan nan nan 57 68 75 57 47 44 43 nan nan nan nan nan nan nan nan nan nan nan nan nan nan
nan nan nan nan nan nan nan nan nan nan nan nan nan nan nan nan nan nan nan 57 48 47 48 57 41 33 29 nan nan nan nan nan nan nan nan nan nan nan nan nan nan nan nan
Wind_Direction
253 257 264 265 271 273 275 277 277 279 282 288 295 298 299 298 299 306 306 308 313 309 305 nan nan nan 297 286 290 nan nan nan 257 253 255 264 nan 277 288 302 299 nan nan
269 262 265 263 268 270 269 270 271 274 277 283 290 295 298 301 nan 302 305 302 301 302 297 nan nan nan nan nan nan nan nan nan nan nan nan 248 271 270 281 300 303 nan nan
284 270 255 257 263 268 269 267 266 269 272 276 282 291 293 297 nan 300 301 298 297 298 293 nan nan nan nan nan nan nan nan nan nan nan nan nan nan nan 277 287 290 285 281
278 275 270 263 252 260 263 266 267 268 269 273 281 286 290 295 300 300 296 298 297 292 nan nan nan nan nan nan nan nan nan nan nan nan nan nan nan nan nan nan 280 280 nan
271 267 269 284 263 252 259 263 266 267 268 268 268 279 283 292 298 302 293 292 287 286 nan nan nan nan nan nan nan nan nan nan nan nan nan nan nan nan nan nan nan nan nan
259 261 273 282 289 267 254 259 263 264 267 267 267 273 281 287 290 295 292 284 283 285 nan nan nan nan nan nan nan nan nan nan nan nan nan nan nan nan nan nan nan nan nan
252 257 265 277 280 285 274 257 258 262 266 267 267 270 274 281 286 287 286 284 283 286 nan nan nan nan nan nan nan nan nan nan nan nan nan nan nan nan nan nan nan nan nan
249 250 261 272 280 281 282 269 258 261 263 266 270 270 271 273 280 283 285 286 285 nan nan nan nan nan nan nan nan nan nan nan nan nan nan nan nan nan nan nan nan nan nan
244 249 249 253 264 274 281 278 265 254 260 265 267 270 269 268 274 280 285 287 286 nan nan nan nan nan nan nan nan nan nan nan nan nan nan nan nan nan nan nan nan nan nan
248 247 252 248 246 252 257 273 271 258 250 256 261 264 262 264 269 275 274 280 282 281 280 nan nan nan nan nan nan nan nan nan nan nan nan nan nan nan nan nan nan nan nan
244 244 245 250 246 243 246 255 263 265 264 253 251 256 259 254 262 nan nan nan 279 281 280 nan nan nan nan nan nan nan nan nan nan nan nan nan nan nan nan nan nan nan nan
nan 244 247 248 249 249 244 246 253 257 255 257 253 249 248 252 257 nan nan nan 281 280 278 277 275 270 nan nan nan nan nan nan nan nan nan nan nan nan nan nan nan nan nan
nan nan 246 255 245 252 252 250 246 247 250 251 257 254 248 251 249 nan nan nan nan nan nan nan nan nan nan nan nan nan nan nan nan nan nan nan nan nan nan nan nan nan nan
nan nan nan nan 241 247 242 249 254 250 247 246 252 261 256 nan 252 nan nan nan nan nan nan nan nan nan nan nan nan nan nan nan nan nan nan nan nan nan nan nan nan nan nan
nan nan nan nan nan 244 250 255 249 247 240 243 257 256 269 264 257 nan nan nan nan nan nan nan nan nan nan nan nan nan nan nan nan nan nan nan nan 297 304 nan nan 304 nan
nan nan nan nan 236 nan 249 248 250 249 243 255 263 261 269 272 267 259 nan nan nan nan nan nan nan nan nan nan nan nan nan nan nan nan nan nan nan nan 293 nan nan nan nan
nan nan nan nan nan 239 nan nan nan 248 249 255 263 268 260 265 nan 262 257 253 nan nan nan nan nan nan nan nan nan nan nan nan nan nan nan nan nan nan nan nan 298 293 289
nan nan nan nan nan nan nan 247 nan nan nan 251 256 261 265 260 262 259 255 nan nan nan nan nan nan nan nan nan nan nan nan nan nan nan nan nan nan nan nan nan 290 288 284
nan nan nan nan nan 244 240 nan nan nan nan 252 255 257 260 269 nan 257 249 nan 241 nan nan nan nan nan nan nan nan nan nan nan nan nan nan nan nan nan nan nan nan nan nan
nan nan nan nan nan nan nan nan nan nan nan nan nan nan 267 nan nan nan nan nan 235 238 nan nan nan nan nan nan nan nan nan nan nan nan nan nan nan nan nan nan nan nan nan
nan nan nan nan nan nan nan nan nan nan nan nan nan nan nan 269 nan nan nan nan nan nan nan nan nan nan nan nan nan nan nan nan nan nan nan nan nan nan nan nan nan nan nan
nan nan 244 246 245 nan nan nan nan nan nan nan nan nan nan nan nan nan nan nan nan nan nan nan nan nan nan nan nan nan nan nan nan nan nan nan nan nan nan nan nan nan nan
nan 240 244 243 245 244 246 241 nan nan nan nan nan nan nan nan nan nan nan nan nan nan nan nan nan nan nan nan nan nan nan nan nan nan nan nan nan nan nan nan nan nan nan
nan 234 237 243 242 242 246 244 nan nan nan nan nan nan nan nan nan nan nan nan nan nan 246 247 nan 261 263 264 259 262 nan nan nan nan nan nan nan nan nan nan nan nan nan
nan nan 235 236 239 238 245 nan 248 nan nan nan nan nan nan nan nan nan nan nan nan nan 264 263 260 255 251 264 272 nan nan nan nan nan nan nan nan nan nan nan nan nan nan
nan nan nan nan nan nan nan nan nan nan nan nan nan nan nan nan nan nan nan 248 265 263 271 257 241 242 242 nan nan nan nan nan nan nan nan nan nan nan nan nan nan nan nan